Weather Roundup
Issued by NWS Chicago, IL

Home | Current Version | Previous Version | Graphics & Text | Print | Product List | Glossary Off
Versions: 1 2 3 4 5 6 7 8 9 10 11 12 13 14 15 16 17 18 19 20 21 22 23 24 25 26 27 28 29 30 31 32 33 34 35 36 37 38 39 40 41 42 43 44 45 46 47 48 49 50

000
NZUS59 KLOT 110308
HRRLOT

CHICAGO AREA WEATHER ROUNDUP
NATIONAL WEATHER SERVICE CHICAGO/ROMEOVILLE IL
900 PM CST WED FEB 10 2016

NOTE: "FAIR" INDICATES FEW OR NO CLOUDS BELOW 12,000 FEET WITH NO
SIGNIFICANT WEATHER AND/OR OBSTRUCTIONS TO VISIBILITY.

* THESE STATIONS ARE NOT UNDER NWS QUALITY CONTROL. THEY ALSO MAY NOT
  REPORT WEATHER SUCH AS PRECIPITATION OR FOG.

ILZ005-006-012>014-019>023-110400-
NORTHEAST ILLINOIS

CITY           SKY/WX    TMP DP  RH WIND       PRES   REMARKS
OHARE          PTCLDY    12   0  58 N6        30.14R WCI   3
MIDWAY         PTCLDY    14   0  53 NW12      30.15R WCI   0
AURORA         CLEAR     11   3  70 N5        30.16R WCI   3
LANSING*       CLOUDY    15   2  57 N7        30.15R WCI   5
JOLIET*        CLEAR     15   4  61 N6        30.16R WCI   6
WAUKEGAN       CLEAR      8   0  69 W3        30.13R
DUPAGE AIRPORT CLEAR      8  -2  63 N6        30.14R WCI  -2
WHEELING       CLEAR     11   0  61 NW3       30.16R
KANKAKEE*      CLEAR     15   6  67 W3        30.15R
MORRIS*        CLEAR     13   6  73 CALM      30.14R
LEWIS AIRPORT* PTCLDY    12   1  63 N7        30.16R WCI   1
$$

WIZ051-052-058>065-066-070>072-110400-
SOUTHEAST WISCONSIN

CITY           SKY/WX    TMP DP  RH WIND       PRES   REMARKS
MILWAUKEE      PTCLDY    10  -2  58 NW6       30.13S WCI   0
KENOSHA*       CLEAR      8  -1  66 NW3       30.13R
RACINE*        CLEAR      8  -3  61 W3        30.14S
BURLINGTON     CLEAR      4  -3  72 W5        30.13R WCI  -5
WAUKESHA       CLEAR      5  -2  72 W5        30.13R WCI  -4
WEST BEND      CLEAR      5   0  78 CALM      30.11R
$$

INZ001>003-010>013-019-020-110400-
NORTHWEST INDIANA

CITY           SKY/WX    TMP DP  RH WIND       PRES   REMARKS
GARY*          MOCLDY    18   1  49 W10       30.15R WCI   6
MICHIGAN CITY* NOT AVBL
RENSSELAER*    NOT AVBL
VALPARAISO     CLOUDY    15   8  73 W10       30.11S WCI   2
$$

LMZ740>746-110400-
SOUTHERN LAKE MICHIGAN

STATION/POSITION TIME  SKY/WX   TEMP WIND        PRES    VSBY
                                AIR  DIR/SP/G
                 (UTC)          (F)  (DEG/KT/KT) (MB)    (MI)
HARRISON CRIB    0200            16  320/ 11/ 13   N/A
BURNHAM HARBOR   0300            15  310/  6/  9   N/A
CALUMET HARBOR   0200            15                N/A
BURNS HARBOR     0201            18  320/  9/ 17 1020.0R
MICHIGAN CITY    0200            17  300/ 15/ 17   N/A
$$

ABBREVIATIONS USED IN REMARKS
   TC - TEMPERATURE IN CELSIUS
  WCI - WIND CHILL INDEX
   HX - HEAT INDEX
  VSB - VISIBILITY
$$



USA.gov is the U.S. government's official web portal to all federal, state and local government web resources and services.